395P/Catalina-NEAT (2021)

Japanese version
Home page
Updated on July 8, 2020

---------------------------------------------------------------------

* Profile

Designation 395P/2020 H1
Recovery Date April 26, 2020
Magnitude 21.0 mag
Recoverer Erwin Schwab (Egelsbach, Germany), D. Abreu (European Space Agency's Optical Ground Station, Tenerife)

* Pictures

* Orbital Elements

Epoch 2021 Dec. 12.0 TT = JDT 2459560.5                                         
T 2021 Dec. 30.46223 TT                                 Bell                    
q   4.0648913            (2000.0)            P               Q                  
n   0.05865859     Peri.   89.85088     +0.68740006     +0.72520638             
a   6.5601681      Node   223.66286     -0.68701460     +0.63165617             
e   0.3803678      Incl.    3.27623     -0.23556760     +0.27401859             
P  16.8                                                                         
From 187 observations 2005 May 12-2020 Apr. 27, mean residual 0".9.             

* Magnitudes Graph

        m1 = 9.5 + 5 log d + 10.0 log r

---------------------------------------------------------------------

The orbital elements are published on M.P.E.C. 2020-H202.
The magnitudes graphs are made with Comet for Windows.

---------------------------------------------------------------------

Copyright(C) Seiichi Yoshida (comet@aerith.net). All rights reserved.